Weather in Uralskiy

Russia / Udmurt Republic     56°29′36″N   53°31′31″E
temp.,
°C
wind,
m/s
gust,
m/s
humid.,
%
clouds,
%
prec.,
mm/h
press.,
hPa
HPBL,
m
16 may, sun
sun1601:00+19sw410615 0.0 1018147
04:00+17ssw49605 0.0 1019123
07:00+21sw411555 0.0 1018270
10:00+26ssw693919 0.0 1018641
13:00+30ssw79275 0.0 10172493
16:00+29sw793326 0.0 10173037
19:00+25sw5124394 0.0 1017294
22:00+21ssw4755100 0.0 1016111
17 may, mon
mon1701:00+18sw476314 0.0 101792
04:00+17sw48655 0.0 1017125
07:00+20sw365810 0.0 1018192
10:00+25sw454422 0.0 1018651
13:00+28wsw583882 0.0 10171510
16:00+28wsw61138100 0.0 10172407
19:00+25w47541 0.0 1016171
22:00+20nw33645 0.1 101838
18 may, tue
tue1801:00+18nnw116513 0.0 101811
04:00+16nnw227413 0.1 101914
07:00+17nne3572100 0.0 1020242
10:00+21n4558100 0.0 1020738
13:00+23nne4543100 0.0 10201185
16:00+23nne4440100 0.0 10201215
19:00+21ne36545 0.0 1021159
22:00+16ene48645 0.0 1022124
19 may, wed
wed1901:00+13e4107967 0.0 1022215
04:00+11e310885 0.0 1023220
07:00+14ese58717 0.0 1024361
10:00+19e56475 0.0 1023717
13:00+22ese56355 0.0 10221152
16:00+24se56334 0.0 10211399
19:00+21se365112 0.0 1020141
22:00+16ese36605 0.0 102084
20 may, thu
thu2001:00+14ese356740 0.0 102065
04:00+13sse337047 0.0 102125
07:00+17sse485954 0.0 1020256
10:00+22sse68435 0.0 1020986
13:00+24s78364 0.0 10191742
16:00+25s78340 0.0 10181972
19:00+22s48500 0.0 1018213
22:00+16wsw33838 0.0 101834